User: anonymous   Login
Location: Vihti�l�
(61.3833°N, 23.0667°E)
Time: 16:06:53
(UTC+00:00)
Language:

COSMOS 2455 - Orbit

View from above orbital plane
View from above orbital plane
View from above satellite
View from above satellite

Ground track
Ground track

The orbit data is extracted from the following two-line orbital elements,

1 36095U 09063A   21059.32697568 -.00000052  00000-0  16432-4 0  9992
2 36095  67.1468 277.1527 0004861 243.4641 116.5946 13.96775669575087
Epoch (UTC): 28 February 2021 07:50:50
Eccentricity: 0.0004861
inclination: 67.1468°
perigee height: 901 km
apogee height: 908 km
right ascension of ascending node: 277.1527°
argument of perigee: 243.4641°
revolutions per day: 13.96775669
mean anomaly at epoch: 116.5946°
orbit number at epoch: 57508

The dashed part of the orbit path shows where the satellite is in the earth's shadow,  

DLR